Weather History for Haleyville, AL

Change the Weather History Date:

Saturday, December 28, 2013

  Actual Average (KJFX) Record (KJFX)
Temperature  
Mean Temperature 38 °F -  
Max Temperature 43 °F 53 °F 72 °F (1984)
Min Temperature 32 °F 31 °F 16 °F (1978)
Degree Days  
Heating Degree Days 28    
Moisture  
Dew Point 37 °F    
Average Humidity 91    
Maximum Humidity 100    
Minimum Humidity 58    
Precipitation  
Precipitation 0.51 in - - ()
Sea Level Pressure  
Sea Level Pressure 30.16 in    
Wind  
Wind Speed 3 mph (East)    
Max Wind Speed 13 mph    
Max Gust Speed 20 mph    
Visibility 6 miles    
Events Rain    
Averages and records for this station are not official NWS values.
T = Trace of Precipitation, MM = Missing Value Source: NWS Daily Summary

Daily Weather History Graph

Daily Weather History Graph

Search for Another Location

Airport:

Trip Planner

Search our weather history database for the weather conditions in past years. The results will help you decide how hot, cold, wet, or windy it might be!

Date:

Astronomy

Dec. 28, 2013 Rise Set
Actual Time 6:55 AM CST 4:48 PM CST
Civil Twilight 6:27 AM CST 5:16 PM CST
Nautical Twilight 5:56 AM CST 5:47 PM CST
Astronomical Twilight 5:25 AM CST 6:18 PM CST
Moon 2:38 AM CST (12/28) 1:34 PM CST (12/28)
Length of Visible Light 10h 48m
Length of Day
9h 53m
Waning Crescent, 19% of the Moon is Illuminated
Dec 28
Waning Crescent
Jan 1
New
Jan 7
First Quarter
Jan 15
Full
Jan 23
Last Quarter

Hourly Weather History & Observations

Time (CST) Temp. Windchill Dew Point Humidity Pressure Visibility Wind Dir Wind Speed Gust Speed Precip Events Conditions
12:56 AM 32.0 °F - 30.0 °F 92% 30.40 in 10.0 mi Calm Calm - N/A   Clear
1:56 AM 32.9 °F - 30.0 °F 89% 30.40 in 10.0 mi Calm Calm - N/A   Clear
2:56 AM 32.9 °F - 31.1 °F 93% 30.38 in 10.0 mi Calm Calm - N/A   Clear
3:56 AM 34.9 °F - 31.1 °F 86% 30.35 in 10.0 mi Calm Calm - N/A   Clear
4:56 AM 36.0 °F - 32.0 °F 86% 30.34 in 10.0 mi Calm Calm - N/A   Clear
5:56 AM 38.8 °F - 30.0 °F 71% 30.33 in 10.0 mi Calm Calm - N/A   Clear
6:56 AM 39.9 °F - 30.0 °F 68% 30.33 in 10.0 mi Calm Calm - N/A   Clear
7:56 AM 41.9 °F 37.5 °F 29.1 °F 61% 30.33 in 10.0 mi East 6.9 mph - N/A   Clear
8:56 AM 43.9 °F 42.3 °F 30.0 °F 58% 30.34 in 10.0 mi ESE 3.5 mph - N/A   Overcast
9:56 AM 43.9 °F 40.5 °F 31.1 °F 61% 30.37 in 10.0 mi Variable 5.8 mph - 0.00 in Rain Light Rain
10:22 AM 42.8 °F 40.1 °F 33.8 °F 70% 30.35 in 8.0 mi SE 4.6 mph - 0.00 in Rain Light Rain
10:56 AM 39.9 °F 35.1 °F 34.9 °F 82% 30.34 in 7.0 mi SE 6.9 mph - 0.03 in Rain Light Rain
11:16 AM 39.2 °F 35.0 °F 35.6 °F 87% 30.31 in 5.0 mi Variable 5.8 mph - 0.01 in Rain Rain
11:25 AM 39.2 °F 35.0 °F 35.6 °F 87% 30.30 in 5.0 mi SE 5.8 mph - 0.02 in Rain Rain
11:56 AM 39.9 °F - 36.9 °F 89% 30.31 in 7.0 mi Calm Calm - 0.04 in Rain Light Rain
12:56 PM 39.9 °F 35.8 °F 37.9 °F 93% 30.27 in 6.0 mi ESE 5.8 mph - 0.04 in Rain Light Rain
1:06 PM 39.2 °F 35.9 °F 37.4 °F 93% 30.24 in 4.0 mi Variable 4.6 mph - 0.01 in Rain Rain
1:26 PM 39.2 °F 35.9 °F 37.4 °F 93% 30.21 in 4.0 mi Variable 4.6 mph - 0.03 in Rain Rain
1:38 PM 39.2 °F 35.9 °F 37.4 °F 93% 30.20 in 5.0 mi East 4.6 mph - 0.03 in Rain Light Rain
1:56 PM 38.8 °F 34.6 °F 37.9 °F 97% 30.20 in 5.0 mi ENE 5.8 mph - 0.05 in Rain Rain
2:10 PM 39.2 °F 35.9 °F 37.4 °F 93% 30.16 in 4.0 mi Variable 4.6 mph - 0.01 in Rain Rain
2:38 PM 39.2 °F 35.9 °F 37.4 °F 93% 30.15 in 8.0 mi Variable 4.6 mph - 0.02 in Rain Light Rain
2:56 PM 39.9 °F 35.8 °F 37.9 °F 93% 30.18 in 9.0 mi ENE 5.8 mph - 0.03 in Rain Light Rain
3:19 PM 39.2 °F 35.9 °F 39.2 °F 100% 30.14 in 7.0 mi Variable 4.6 mph - 0.00 in Rain Light Rain
3:56 PM 39.9 °F 35.1 °F 37.9 °F 93% 30.15 in 3.0 mi ENE 6.9 mph - 0.02 in Rain Heavy Rain
4:22 PM 39.2 °F 34.2 °F 37.4 °F 93% 30.10 in 5.0 mi ENE 6.9 mph - 0.02 in Rain Light Rain
4:56 PM 38.8 °F 34.6 °F 37.9 °F 97% 30.12 in 3.0 mi ENE 5.8 mph - 0.04 in Rain Heavy Rain
5:20 PM 39.2 °F 33.6 °F 37.4 °F 93% 30.07 in 4.0 mi ENE 8.1 mph - 0.02 in Rain Rain
5:56 PM 38.8 °F 34.6 °F 37.9 °F 97% 30.09 in 4.0 mi ENE 5.8 mph - 0.05 in Rain Heavy Rain
6:36 PM 39.2 °F 35.0 °F 37.4 °F 93% 30.04 in 4.0 mi Variable 5.8 mph - 0.03 in Rain Rain
6:56 PM 38.8 °F - 38.8 °F 100% 30.10 in 4.0 mi Calm Calm - 0.04 in Rain Rain
7:08 PM 39.2 °F - 39.2 °F 100% 30.07 in 1.8 mi Calm Calm - 0.03 in Rain Heavy Rain
7:19 PM 39.2 °F - 39.2 °F 100% 30.06 in 2.0 mi Calm Calm - 0.08 in Rain Heavy Rain
7:30 PM 39.2 °F - 39.2 °F 100% 30.06 in 2.5 mi Calm Calm - 0.09 in Rain Rain
7:56 PM 38.8 °F - 38.8 °F 100% 30.07 in 1.8 mi Calm Calm - 0.13 in Rain Heavy Rain
8:05 PM 39.2 °F 35.0 °F 39.2 °F 100% 30.03 in 1.5 mi Variable 5.8 mph - 0.01 in Rain Heavy Rain
8:17 PM 39.2 °F 34.2 °F 39.2 °F 100% 30.01 in 2.5 mi ENE 6.9 mph - 0.03 in Rain Heavy Rain
8:29 PM 39.2 °F 34.2 °F 39.2 °F 100% 30.00 in 4.0 mi Variable 6.9 mph - 0.03 in Rain Light Rain
8:38 PM 39.2 °F 34.2 °F 39.2 °F 100% 30.00 in 6.0 mi Variable 6.9 mph - 0.03 in Rain Light Rain
8:56 PM 39.9 °F 34.5 °F 39.9 °F 100% 30.03 in 4.0 mi East 8.1 mph - 0.04 in Rain Light Rain
9:15 PM 42.8 °F 36.2 °F 42.8 °F 100% 29.99 in 6.0 mi East 12.7 mph 19.6 mph 0.00 in Rain Light Rain
9:56 PM 41.0 °F 36.4 °F 39.9 °F 96% 30.03 in 10.0 mi Variable 6.9 mph - 0.00 in   Overcast
10:10 PM 41.0 °F 35.8 °F 39.2 °F 93% 30.00 in 10.0 mi East 8.1 mph - N/A   Overcast
10:20 PM 41.0 °F 36.4 °F 39.2 °F 93% 29.99 in 10.0 mi East 6.9 mph - N/A   Overcast
10:56 PM 39.9 °F 37.8 °F 38.8 °F 96% 30.01 in 10.0 mi Variable 3.5 mph - N/A   Overcast
11:17 PM 39.2 °F 35.9 °F 39.2 °F 100% 29.97 in 2.5 mi SE 4.6 mph - N/A   Overcast
11:28 PM 39.2 °F 37.0 °F 39.2 °F 100% 29.96 in 1.5 mi Variable 3.5 mph - N/A   Overcast
11:56 PM 39.9 °F - 38.8 °F 96% 30.00 in 1.8 mi Calm Calm - N/A   Overcast